Theta_e
285 285 285 285 284 284 284 283 282 282 281 281 280 280 279 279 278 278 278 277 277 276 276 276 275 275 275 275 275 274 274 274 274 274 273 273 273 273 273 273 273 273 274 274 274 274 274 274 274 274 275 274 274 274 274 274 274 274 274 274 274 274 274 273 272 272 274 277 277 277 278 278 276 278 277 278 278 279 281 279 279 279 279 279 279
285 285 285 284 284 283 283 282 282 281 280 280 279 279 279 278 278 277 277 276 276 276 275 275 275 275 274 274 274 274 274 273 273 273 273 272 272 273 273 273 273 272 272 272 272 273 273 272 272 273 273 273 273 273 273 273 273 272 272 273 272 272 273 272 272 272 271 275 275 276 276 277 275 277 276 276 277 278 277 277 278 278 278 279 279
285 284 284 283 283 283 282 281 281 280 279 279 278 278 278 277 277 277 276 276 275 275 275 275 275 274 274 274 273 273 273 273 273 272 272 272 272 272 272 272 272 271 271 271 271 271 271 271 271 272 272 271 272 272 272 272 272 271 271 271 271 271 272 272 271 270 270 271 274 273 274 275 275 275 277 277 277 277 276 276 276 277 278 278 278
284 284 283 283 282 281 281 280 279 279 279 278 277 277 277 276 276 276 275 275 275 275 274 274 274 274 273 273 272 272 272 272 272 271 272 271 271 271 271 271 271 270 270 270 270 270 270 270 270 271 271 270 270 271 271 271 271 270 270 270 271 270 271 272 272 271 270 270 271 272 273 273 274 276 277 277 276 275 275 275 276 276 277 278 279
283 283 282 282 281 281 280 279 279 278 278 277 277 276 276 276 275 275 274 274 274 274 274 273 273 273 272 272 271 271 271 271 271 271 271 271 270 270 270 270 270 270 270 270 271 270 270 270 270 270 270 269 270 270 270 270 270 270 270 270 270 271 271 271 271 271 270 269 270 272 273 273 274 275 275 274 274 274 275 275 275 276 277 279 280
283 282 282 281 281 280 279 279 278 278 277 277 276 276 275 275 275 274 274 274 273 273 273 272 272 271 271 271 270 270 270 270 270 270 270 270 270 270 270 270 270 270 270 270 270 270 270 270 270 270 270 269 270 270 270 270 270 270 270 270 270 271 271 271 271 271 270 270 270 270 272 271 272 273 274 274 273 273 274 275 276 277 277 277 278
282 282 281 281 280 279 279 278 278 277 277 276 275 275 274 274 274 273 273 273 272 272 271 271 271 271 270 270 270 270 270 269 269 269 269 269 269 269 269 269 270 270 270 270 270 270 270 270 271 271 271 271 270 270 270 270 271 270 271 271 271 271 270 270 271 271 270 270 270 271 271 272 272 271 273 275 274 274 273 273 273 275 276 276 277
281 281 280 280 279 279 279 278 277 277 276 275 275 274 273 273 273 272 272 272 271 271 270 270 270 269 269 269 269 269 269 269 269 269 269 269 269 269 270 270 270 270 270 271 271 271 272 272 272 272 272 272 271 272 272 271 272 271 271 271 271 271 270 271 270 271 270 270 270 270 271 271 272 273 274 274 273 273 274 273 272 273 275 277 278
280 280 279 279 279 278 278 277 276 276 275 274 274 273 273 272 272 272 271 270 270 270 269 269 268 268 268 268 268 269 269 269 269 269 269 269 270 269 270 270 270 270 271 272 272 273 273 273 273 273 273 275 276 276 277 277 275 274 274 274 271 271 270 270 270 270 270 270 270 271 271 270 271 272 271 272 271 271 274 274 273 274 276 276 277
280 279 279 279 278 277 277 276 275 275 274 273 273 272 272 271 270 270 270 269 269 269 268 268 268 268 268 268 269 269 269 269 271 273 273 270 270 270 270 271 272 272 272 272 273 273 273 273 274 276 276 277 277 278 278 278 279 277 275 275 275 274 273 272 271 270 270 270 270 270 270 270 271 271 271 272 273 274 274 274 273 274 275 275 276
279 279 278 278 277 277 276 275 275 274 274 273 272 272 271 270 269 269 268 268 268 268 268 267 267 268 268 268 268 269 269 270 273 274 275 276 274 272 272 273 273 273 273 273 273 273 273 274 274 275 275 276 275 277 278 278 278 279 279 279 278 276 273 273 272 273 272 271 272 271 271 271 272 273 273 273 274 274 274 274 274 275 274 273 273
279 278 278 277 277 276 275 274 274 273 272 272 271 271 270 269 268 268 267 267 267 267 267 267 267 268 268 268 268 269 269 272 274 275 276 276 276 274 274 273 273 273 273 273 273 273 273 273 273 274 274 274 274 274 276 277 278 278 279 279 279 279 279 276 274 272 273 272 272 272 272 272 273 274 274 274 274 275 275 275 275 275 274 274 274
278 277 277 276 276 275 274 273 273 272 271 271 270 269 269 268 267 266 266 266 266 266 267 267 267 268 268 268 268 269 269 272 274 275 275 276 276 276 274 274 274 273 274 273 273 273 273 273 273 274 274 276 275 274 274 274 276 278 278 278 278 279 279 279 279 276 274 273 272 272 272 273 273 273 275 276 277 275 276 275 276 276 276 275 276
277 277 276 276 275 274 273 273 272 271 270 269 268 268 267 267 266 266 266 266 266 266 267 267 267 267 268 268 268 269 269 271 273 274 275 275 276 276 274 274 274 274 273 273 273 273 273 273 272 272 273 274 274 274 274 274 274 274 274 274 274 276 278 279 278 279 278 275 274 272 274 275 273 274 275 277 275 274 275 274 275 275 275 275 277
276 276 275 275 274 273 273 272 271 270 269 268 267 266 266 266 266 266 266 266 266 266 266 266 267 267 268 268 268 267 268 271 272 274 274 275 276 276 275 274 273 273 273 273 273 273 273 273 273 273 273 273 274 275 275 275 275 275 275 274 275 275 275 275 275 275 275 275 275 274 275 275 275 275 276 276 276 276 276 275 275 275 276 277 277
276 275 274 274 273 273 272 271 270 268 268 267 266 266 265 266 265 266 266 266 266 267 267 267 267 267 267 267 266 266 267 271 272 273 274 275 276 275 274 273 272 272 272 273 273 273 273 273 273 273 273 274 276 278 278 276 275 274 274 274 275 275 275 278 279 279 278 277 276 276 276 276 279 277 277 277 277 277 277 277 276 276 275 274 273
275 275 274 273 273 272 272 270 268 267 267 266 265 265 265 265 266 266 266 266 266 266 266 267 267 267 266 266 265 265 266 269 271 272 274 275 275 273 273 273 272 272 272 272 273 273 273 273 273 273 274 274 276 278 279 278 275 274 273 273 273 273 273 275 278 280 280 280 281 281 282 282 283 283 283 283 280 280 278 275 274 275 274 273 274
275 275 274 273 272 272 271 270 268 267 266 266 266 266 266 266 266 266 266 266 266 266 266 266 267 266 266 266 266 265 266 268 271 272 274 275 275 273 272 272 271 271 272 272 273 273 274 276 276 274 273 273 276 278 279 277 274 273 273 272 272 272 273 275 275 276 279 280 280 280 281 281 282 282 283 283 283 282 277 275 277 277 275 275 274
275 274 274 273 272 271 270 269 268 266 266 266 266 266 265 265 266 266 266 266 266 266 266 265 266 266 266 266 268 267 265 267 271 272 273 274 274 273 272 271 271 271 271 271 273 273 273 274 275 275 274 275 277 278 278 277 274 274 274 273 272 272 273 274 274 274 275 275 275 276 277 278 278 277 277 281 282 281 279 278 279 277 275 275 276
276 274 273 272 271 270 270 268 267 266 266 266 266 266 266 265 265 265 265 266 265 265 265 265 265 265 266 266 265 266 266 266 268 272 273 274 275 273 272 271 270 270 271 272 272 272 272 272 273 275 276 276 277 277 278 279 275 274 274 273 272 271 273 273 274 274 274 275 275 276 276 277 277 277 277 278 278 279 279 279 279 278 277 276 276
274 273 271 270 269 269 269 268 267 266 266 266 266 265 265 265 265 264 264 264 265 265 265 265 265 265 265 266 266 266 267 266 268 272 273 274 274 274 272 271 271 271 271 272 271 270 270 271 271 273 275 276 277 278 278 278 278 274 273 272 272 273 276 273 274 276 273 273 274 274 275 276 277 277 277 277 277 278 278 279 279 279 279 277 277
273 271 270 269 268 268 268 267 266 265 265 265 265 264 265 265 264 264 264 264 264 264 264 264 263 264 265 266 267 267 268 271 267 271 272 273 274 275 272 272 273 273 271 271 271 270 270 270 270 272 275 276 277 277 277 277 277 273 271 275 277 277 274 273 272 271 271 271 272 273 275 276 277 277 277 278 278 279 279 279 280 280 281 280 279
271 269 268 267 267 266 266 265 265 264 264 264 264 264 264 263 263 263 264 264 263 263 262 263 263 264 265 266 267 268 268 268 270 269 271 272 273 274 275 274 275 273 271 270 269 269 270 270 270 274 276 276 276 276 276 276 274 271 275 276 276 276 274 270 269 269 269 269 269 270 272 275 276 277 277 278 279 279 280 280 280 281 281 282 282
269 268 267 266 265 264 264 263 263 263 264 264 264 263 263 262 262 262 263 263 262 262 262 263 264 264 264 265 267 267 267 267 268 270 270 272 273 274 275 275 275 273 272 270 270 269 269 270 272 275 274 274 274 274 274 273 271 274 274 275 274 273 269 268 268 267 268 268 268 268 270 272 275 277 278 279 279 280 281 281 281 282 282 282 282
267 266 265 264 263 263 262 262 262 263 263 264 263 262 261 261 261 262 262 263 262 262 263 264 264 264 265 265 266 266 267 267 267 269 271 272 273 274 274 274 274 274 271 270 270 269 272 274 274 273 272 272 273 272 270 270 272 273 273 273 271 267 267 267 266 267 266 266 267 268 269 270 272 274 276 278 280 281 281 281 282 283 283 283 283
266 265 263 263 262 261 261 260 261 262 263 263 263 262 261 261 262 262 262 263 263 264 264 264 264 264 264 265 265 266 266 267 267 268 269 270 271 272 273 273 273 273 272 270 272 273 273 272 271 271 270 269 267 266 266 267 271 271 271 270 266 266 266 266 266 266 266 266 267 267 268 270 271 272 273 274 274 277 280 280 281 282 282 282 282
265 263 262 261 261 261 261 260 260 261 262 263 263 262 262 263 263 262 262 263 264 264 264 264 264 264 264 265 265 265 265 266 267 267 268 269 270 271 271 270 272 271 269 268 270 268 266 266 266 269 268 269 269 269 268 268 265 265 265 265 265 265 266 266 266 266 266 266 267 267 268 269 270 271 271 272 273 276 280 281 281 281 282 282 281
264 263 262 261 260 261 260 261 260 260 261 262 262 262 263 264 263 263 263 264 263 264 264 264 264 264 264 264 264 263 264 264 266 266 267 270 270 271 270 270 270 269 268 269 268 265 263 265 265 263 263 262 263 262 263 263 263 264 264 264 264 266 267 269 269 267 267 267 267 268 268 268 268 269 270 271 272 275 277 279 281 281 282 282 280
263 262 261 261 260 261 260 260 260 260 261 261 262 262 263 264 264 264 266 266 265 265 264 265 265 265 264 264 264 263 264 264 265 269 271 272 270 270 269 269 269 268 270 271 266 262 259 259 259 260 260 260 260 260 261 261 261 262 263 263 264 264 265 265 265 265 266 267 266 266 266 267 267 268 269 269 270 272 274 275 279 281 282 282 280
262 261 261 261 261 261 260 260 260 260 261 261 261 262 266 267 266 265 265 268 270 270 269 266 266 265 265 265 266 264 264 265 270 272 271 271 272 272 272 272 271 270 270 270 265 257 257 257 258 258 259 259 259 259 260 260 260 261 262 265 264 264 264 265 265 265 266 266 266 266 266 267 267 267 268 268 269 270 272 274 275 279 281 281 280
262 261 261 260 261 261 260 260 260 261 261 262 262 262 263 266 269 269 269 270 271 271 271 271 271 270 267 264 267 270 270 271 271 271 271 271 271 271 271 270 271 270 270 265 258 255 256 256 257 257 258 258 258 259 259 260 260 260 261 262 263 263 264 264 265 266 266 266 266 267 267 267 266 267 267 267 267 268 270 272 274 276 279 281 281
262 262 261 261 261 261 261 261 260 261 261 262 261 262 263 263 265 269 271 271 272 272 272 272 271 271 271 268 266 265 269 270 270 270 270 270 270 270 270 270 270 269 268 265 256 256 256 256 256 257 257 257 258 259 259 259 260 260 261 261 262 263 264 264 265 265 266 266 266 266 267 266 266 266 266 267 267 267 268 269 271 273 276 281 282
263 262 261 261 261 261 261 261 261 261 261 261 261 262 262 263 263 265 268 271 272 272 271 271 271 271 271 270 270 269 269 270 270 270 270 269 269 269 269 268 269 268 265 258 254 255 255 255 255 256 257 257 258 258 259 259 260 260 261 261 262 263 264 265 266 265 266 266 267 266 266 266 266 266 266 266 266 265 266 267 269 271 273 276 281
265 263 262 262 261 261 261 261 261 261 261 261 262 262 263 264 264 264 263 264 267 269 270 270 270 271 270 270 270 270 270 269 269 269 269 269 268 268 266 263 266 266 263 254 254 254 254 255 255 256 256 257 257 258 259 259 260 260 261 261 262 263 264 265 265 265 265 266 266 266 266 266 266 265 265 265 266 266 265 266 267 268 270 274 278
264 263 262 262 261 261 262 262 262 262 262 262 262 263 263 264 264 263 263 263 263 262 261 263 267 269 267 267 269 269 269 269 269 268 268 268 267 265 263 255 254 255 255 254 255 253 254 254 254 255 256 256 257 258 258 259 259 260 260 261 262 263 263 264 264 265 266 266 266 266 266 266 265 265 265 264 264 264 264 265 266 267 269 271 274
263 263 262 262 262 262 262 262 262 262 263 263 263 263 263 263 262 262 262 262 262 260 258 258 257 264 267 266 268 268 268 269 268 268 267 266 264 262 252 252 251 252 252 253 252 254 254 254 254 255 255 256 256 257 258 259 259 260 260 261 262 262 263 263 264 265 266 266 266 266 266 265 265 265 265 264 264 264 264 265 265 266 268 270 273
263 262 262 262 262 263 262 262 262 263 265 263 263 262 262 262 261 261 261 261 260 259 257 257 256 257 260 258 262 265 267 267 267 266 265 264 262 255 249 250 249 250 251 251 252 253 253 253 253 254 254 255 256 257 258 259 259 260 262 262 262 262 263 264 265 265 266 266 266 266 265 265 265 265 264 263 264 264 264 265 265 266 268 269 272
262 263 262 263 263 263 262 262 263 264 262 262 262 261 260 260 259 259 258 258 258 256 255 256 258 255 255 253 260 258 259 263 263 261 259 258 254 249 249 250 251 249 250 250 250 251 251 252 253 253 254 254 255 256 257 258 259 260 260 261 262 262 266 265 265 265 266 266 266 266 265 265 265 264 264 264 263 263 264 264 265 265 266 268 270
263 264 264 264 265 262 262 262 262 261 260 260 259 259 258 258 257 257 257 257 256 255 255 255 255 254 253 253 252 257 258 251 249 248 249 247 248 247 247 247 248 249 249 249 251 251 251 251 252 253 254 254 255 256 257 258 259 259 260 261 262 262 263 263 264 265 266 266 266 266 265 265 265 264 264 264 263 264 264 264 265 265 265 266 268
263 264 264 265 264 263 262 261 261 260 259 258 258 258 257 257 257 256 256 256 255 254 254 254 254 253 253 253 254 255 252 250 248 247 246 247 247 247 246 247 247 247 248 249 249 249 250 251 252 252 253 254 255 256 257 258 258 259 260 261 261 262 263 263 264 265 266 266 266 266 265 265 264 264 264 264 264 264 264 264 265 265 266 266 268
264 264 263 265 263 262 261 260 259 259 258 258 258 258 257 257 256 256 255 255 255 254 254 254 253 252 254 257 263 261 252 249 247 247 246 247 247 246 245 246 247 246 247 248 249 249 250 250 251 252 253 253 255 256 256 257 258 259 260 261 262 262 263 263 264 266 267 266 266 265 265 265 264 264 263 264 266 265 264 264 264 265 266 267 267
264 263 263 262 262 260 259 259 259 258 258 257 257 257 256 256 256 255 255 254 254 254 253 252 252 251 256 263 263 263 252 247 247 246 246 246 246 245 247 246 245 245 246 246 247 249 250 250 251 252 252 253 254 255 256 257 258 259 260 261 262 262 263 263 265 267 267 266 266 265 265 265 265 264 264 266 264 264 264 264 264 265 265 266 268
263 263 262 261 260 260 259 259 258 257 257 257 257 256 256 255 255 255 254 254 253 253 252 252 251 250 253 261 261 260 248 245 249 246 245 245 245 246 246 246 246 246 245 247 247 248 249 250 250 251 252 253 254 255 256 256 258 259 260 261 262 262 262 264 266 267 267 266 265 265 265 265 264 264 264 264 264 264 263 264 264 265 266 266 268
262 261 261 260 260 259 258 257 257 257 257 256 255 255 255 254 254 254 254 253 253 253 252 252 251 251 249 252 253 250 246 246 244 242 244 246 245 246 246 245 246 246 247 247 247 247 248 249 250 251 253 253 254 255 256 257 259 260 261 262 262 263 263 265 266 267 267 266 265 265 264 264 264 264 263 264 263 263 263 263 264 264 265 266 268
262 260 259 259 258 256 257 257 257 256 255 254 254 254 254 254 253 253 253 252 252 252 251 251 251 250 249 247 246 246 244 243 246 246 245 244 244 244 244 245 246 246 247 247 247 248 248 249 250 251 252 253 254 255 256 258 259 261 262 262 262 263 264 266 267 268 268 266 265 265 264 264 264 264 263 263 264 263 263 263 264 265 265 266 267
261 260 259 258 256 257 256 255 255 254 254 253 253 253 253 253 253 252 252 252 252 251 251 250 249 249 248 247 245 247 244 242 243 244 246 245 244 244 244 245 245 246 246 247 248 248 249 249 250 251 252 252 254 255 256 258 260 261 262 263 263 264 266 268 269 269 268 266 265 265 264 264 264 264 264 264 263 263 263 263 264 264 264 265 267
260 259 258 257 257 256 255 254 254 253 253 253 253 253 252 252 252 252 251 251 251 251 250 249 249 248 248 247 246 245 245 245 243 244 243 243 242 244 243 244 245 246 246 246 246 248 248 250 250 251 251 252 254 255 256 258 259 261 262 263 264 265 267 268 269 269 268 267 266 265 264 264 264 264 264 264 263 263 263 263 263 264 264 266 267
260 258 258 257 256 254 254 254 253 253 253 253 252 252 252 251 251 251 251 251 250 250 249 249 248 248 247 246 246 245 245 244 244 245 244 243 242 243 242 242 245 245 246 246 246 247 248 249 250 250 251 252 254 255 256 257 259 261 262 263 264 266 268 269 269 269 268 267 266 265 265 264 264 264 264 263 263 263 263 263 263 264 265 266 268
258 258 256 255 254 254 254 254 254 254 253 252 252 251 251 251 250 250 250 250 250 250 249 249 248 247 246 245 245 244 245 246 243 242 242 243 243 243 243 243 245 245 245 246 246 247 248 248 249 250 251 252 253 254 256 258 259 260 262 263 265 267 268 269 270 269 268 267 266 265 265 264 264 264 264 263 263 263 263 263 263 264 264 265 267
257 256 256 255 255 254 255 255 254 254 253 253 252 251 251 251 250 250 250 251 251 250 250 249 248 247 246 245 245 244 244 244 243 243 242 243 243 243 243 244 243 244 245 245 246 247 247 248 249 250 251 252 253 255 256 258 259 260 262 263 266 268 268 269 270 269 268 267 266 265 265 264 264 264 264 264 263 263 263 263 263 264 264 264 266
256 255 255 255 255 254 254 254 253 253 253 252 252 251 251 251 251 251 251 251 251 250 249 249 247 246 245 245 245 244 244 243 243 243 243 243 243 243 244 244 245 244 245 245 246 247 247 247 249 250 250 252 253 255 256 258 259 261 263 265 267 268 269 270 270 270 269 267 266 265 265 264 264 263 263 263 263 263 263 263 263 263 263 264 265
Wind_Speed
14 14 12 13 13 15 14 12 12 10 10 11 11 10 10 9 9 8 8 8 8 8 7 7 6 6 5 5 5 4 4 3 3 3 3 3 3 3 3 4 6 7 6 7 6 6 7 8 9 9 8 9 9 9 8 9 8 8 8 8 9 8 9 13 18 22 21 17 18 20 19 14 16 14 15 15 15 12 13 14 15 15 17 17 19
16 15 13 13 14 13 13 11 11 10 11 10 11 10 10 9 9 9 9 7 8 8 7 6 6 6 5 5 4 4 3 3 3 2 3 3 3 3 5 5 6 7 5 7 6 6 7 8 9 9 7 9 10 10 9 9 8 9 9 9 10 10 10 13 17 18 23 18 18 19 20 15 18 17 17 16 16 13 15 14 14 15 16 16 16
12 11 12 13 14 12 12 12 12 12 12 10 10 10 10 9 9 10 9 8 7 7 7 7 6 6 5 5 4 4 3 3 3 3 3 4 4 5 5 5 6 7 7 8 7 7 8 9 10 8 7 9 10 9 8 9 8 9 10 9 11 11 12 13 15 19 21 21 18 19 19 16 15 19 17 14 13 13 16 16 15 14 13 15 16
13 13 12 12 12 12 13 12 13 13 13 11 11 10 10 9 8 9 8 7 8 6 6 6 6 6 5 4 4 3 3 3 3 3 3 4 4 5 5 6 6 7 8 8 8 8 9 10 10 9 9 11 10 9 8 9 9 9 10 10 11 13 12 13 16 16 17 20 19 18 18 18 17 17 14 14 15 14 13 15 14 14 15 15 16
12 13 13 13 13 13 13 13 14 14 13 11 12 11 10 10 9 9 9 8 7 7 6 5 5 5 6 5 4 3 3 3 3 3 3 3 4 5 6 6 7 7 8 8 9 9 9 10 10 9 10 11 10 9 9 10 9 9 10 11 11 12 12 14 14 15 17 20 20 18 18 18 16 17 15 16 15 14 13 15 14 15 16 15 14
12 12 13 14 14 15 14 14 15 15 13 12 12 11 11 10 10 8 9 9 8 7 7 6 6 5 4 4 3 3 3 3 3 3 3 4 5 6 6 7 7 8 8 9 9 9 10 10 10 10 10 11 11 11 10 12 12 12 13 13 13 12 15 13 15 17 16 18 19 18 16 18 15 16 13 14 16 16 15 14 14 13 13 15 16
12 13 13 14 13 15 15 15 14 13 13 12 11 11 10 10 10 10 9 9 9 8 7 6 5 5 4 4 3 3 3 2 2 3 4 5 6 6 7 8 9 8 8 9 9 10 10 10 10 11 12 11 12 12 12 13 12 13 14 15 14 16 14 17 14 17 20 18 16 19 18 16 16 17 15 14 17 15 17 18 19 15 12 14 15
13 13 13 14 14 15 14 12 12 12 11 11 12 11 11 10 10 9 9 9 9 8 8 7 5 5 3 3 2 2 2 3 3 5 5 6 6 7 7 8 8 8 9 9 10 11 11 12 13 12 12 12 12 12 14 15 14 17 14 15 15 16 17 14 17 15 15 18 19 15 20 15 16 15 13 15 14 17 12 14 22 18 13 12 14
13 13 13 14 14 13 12 11 11 12 12 12 12 12 11 10 10 9 9 8 7 7 7 6 6 5 3 3 3 3 4 5 5 5 6 7 7 6 6 7 9 10 11 11 11 12 12 13 12 13 14 18 22 21 21 21 16 14 14 13 13 14 15 13 13 14 14 15 18 14 16 18 14 17 14 18 14 17 17 13 19 20 15 15 16
14 14 15 15 13 12 13 12 12 12 13 13 13 12 12 11 10 9 8 8 8 7 7 6 5 5 5 4 5 5 5 5 8 14 12 6 5 5 6 9 10 10 11 12 12 12 13 11 12 20 22 23 23 25 25 25 26 21 17 12 14 12 13 12 12 12 13 16 15 15 15 17 17 16 17 19 16 17 19 17 16 19 16 16 17
14 14 15 13 12 12 13 13 13 14 13 12 11 12 11 10 10 9 9 8 8 7 7 7 6 6 6 6 6 6 6 6 13 14 14 15 8 7 8 9 10 11 11 11 12 12 12 13 13 16 18 18 18 24 24 25 25 27 29 29 25 19 16 16 16 15 15 15 14 14 16 19 17 18 14 18 20 16 19 15 15 16 15 16 19
14 14 12 12 12 14 13 13 13 12 12 12 12 11 11 11 11 10 10 9 8 7 6 7 6 6 6 6 7 6 6 9 13 13 13 13 12 9 8 9 9 10 10 11 12 12 13 13 13 11 11 13 13 15 19 25 27 28 29 29 29 30 29 21 17 15 16 16 17 16 14 17 17 12 14 13 16 17 15 15 17 15 17 14 15
13 12 12 13 14 14 12 13 13 12 12 12 11 11 11 11 11 11 10 8 8 7 7 7 7 7 6 7 7 7 6 10 13 13 12 13 13 12 8 9 10 10 11 11 12 13 13 13 12 10 11 20 17 14 15 17 23 29 31 31 31 32 31 33 32 24 18 19 20 22 19 19 19 18 15 17 18 18 17 14 14 12 13 14 12
13 13 12 13 14 13 13 13 13 12 11 11 11 11 11 11 10 8 8 8 8 8 8 8 7 7 7 7 7 6 6 8 12 12 11 12 12 12 8 9 10 10 11 12 11 12 13 12 12 14 14 13 13 15 16 16 16 16 16 16 16 22 28 32 34 36 32 22 20 21 19 15 20 19 18 17 19 17 13 15 11 13 15 16 16
12 13 13 13 13 13 13 13 13 12 12 12 11 11 11 10 10 9 8 9 9 9 9 8 7 6 6 6 5 5 5 10 12 12 11 11 12 12 7 7 7 9 10 11 12 13 13 12 14 15 13 13 14 17 17 16 15 14 14 15 15 16 15 14 15 17 16 19 20 24 23 20 20 20 17 16 18 17 15 18 17 16 16 15 15
13 12 13 13 14 14 15 14 14 14 14 13 13 11 10 10 12 10 9 7 7 6 6 7 7 7 7 5 4 5 5 11 12 10 10 10 11 7 6 7 7 8 10 11 11 11 11 13 14 14 15 16 20 27 23 19 17 17 17 15 14 13 14 16 25 26 23 20 18 19 20 22 26 23 20 18 16 16 16 17 15 13 15 16 18
15 16 15 15 15 15 16 17 16 15 15 16 13 12 12 11 10 9 10 9 9 8 8 7 7 7 7 6 6 6 5 9 11 9 9 10 8 4 5 5 6 8 10 11 11 11 12 13 14 15 17 17 21 27 27 26 18 18 18 20 19 19 19 17 24 32 34 36 39 40 42 41 39 39 39 40 30 22 16 16 17 10 16 15 16
16 15 16 16 17 17 17 18 18 18 18 14 13 11 10 8 9 9 9 10 9 8 8 6 6 6 7 7 7 6 5 8 11 9 8 9 8 4 3 5 7 8 9 11 10 11 13 20 19 16 16 16 24 28 28 23 16 16 16 19 20 17 15 12 13 16 28 34 37 38 38 39 40 40 39 38 37 27 16 20 17 13 18 15 15
16 18 17 16 16 16 16 16 18 21 15 11 11 13 12 11 10 8 7 7 8 8 7 6 6 5 6 6 9 8 6 8 11 8 8 8 7 3 4 5 7 8 8 9 10 11 12 13 19 18 18 19 27 26 29 25 18 16 16 16 17 18 17 15 15 16 15 16 18 20 22 28 26 23 23 35 35 31 22 19 14 16 17 16 16
15 12 12 14 14 14 14 16 16 18 16 10 7 9 9 9 10 9 7 6 7 7 7 6 6 5 4 4 5 6 6 6 7 9 8 8 9 5 3 5 7 9 9 9 9 9 11 11 12 17 22 25 26 28 29 32 22 18 15 14 18 22 17 16 17 17 19 18 19 19 21 19 18 19 18 18 19 20 20 16 14 14 16 15 16
13 13 13 13 14 15 15 17 18 15 15 14 7 7 7 9 9 8 8 7 7 7 7 6 5 4 4 5 6 7 7 6 6 9 8 8 9 8 4 6 8 8 7 7 8 10 10 11 11 17 23 25 27 30 30 30 28 19 15 15 17 22 26 18 20 26 17 16 17 16 16 15 16 15 14 13 14 14 17 19 18 16 16 16 17
13 13 15 15 15 15 16 14 15 15 13 15 14 9 6 7 8 8 6 8 9 7 6 5 4 4 4 6 6 5 7 9 4 5 7 8 8 10 7 6 8 8 8 7 10 10 12 12 12 18 26 28 28 28 29 28 29 18 17 26 31 32 23 17 14 13 13 14 14 15 15 15 14 12 12 13 14 14 16 15 17 18 17 17 18
13 14 15 15 15 16 15 17 14 12 14 11 10 11 9 9 8 7 9 8 8 8 7 6 5 5 5 4 4 5 4 2 4 3 6 7 9 10 12 10 14 8 7 8 10 11 11 12 13 22 27 28 27 27 27 29 23 17 28 29 29 32 26 13 15 15 14 15 16 17 16 16 13 12 11 12 13 14 15 15 17 17 18 18 19
13 14 14 15 15 14 14 14 13 14 14 10 9 11 10 9 8 6 7 7 7 7 5 5 5 5 5 4 4 3 2 2 4 5 5 7 9 10 11 13 14 8 8 8 10 11 11 12 15 27 25 25 26 26 26 24 19 27 28 30 29 26 15 13 12 14 16 16 16 15 15 14 15 13 12 11 13 14 14 15 16 18 18 17 19
14 14 14 14 14 13 12 12 12 15 10 10 11 10 10 9 9 7 7 8 7 7 7 7 6 6 6 5 3 3 3 2 2 5 6 7 7 9 11 13 13 14 8 6 9 10 15 22 25 23 23 23 25 24 20 21 25 26 28 28 25 12 12 12 13 13 14 14 15 14 15 15 14 16 17 17 16 14 13 14 15 17 17 17 17
14 14 13 13 14 14 15 13 12 10 10 6 7 8 11 10 9 9 7 7 8 8 8 8 7 6 5 4 4 3 2 2 2 4 6 7 7 9 11 11 13 13 12 10 16 17 17 20 21 20 18 18 15 13 13 16 24 26 25 24 13 12 11 12 12 13 13 14 15 15 16 15 16 16 18 17 16 16 14 14 14 14 15 15 16
14 13 14 13 14 16 16 14 13 10 9 8 6 7 8 8 9 9 8 8 8 6 7 8 8 7 6 6 5 4 3 3 3 4 4 5 4 4 6 5 10 9 7 8 8 5 10 12 12 16 16 20 20 19 18 19 15 13 11 11 11 11 11 11 13 14 14 14 15 15 15 16 16 16 15 14 15 15 15 15 14 14 13 12 14
16 16 16 14 8 9 8 14 12 10 9 9 10 8 5 7 9 10 11 11 12 10 9 9 9 8 8 7 6 5 5 4 5 4 5 4 2 3 3 4 3 3 5 6 3 6 7 9 11 7 8 9 9 8 8 9 11 11 11 10 10 12 15 20 19 13 13 13 14 14 13 13 14 14 14 14 15 15 15 16 15 15 14 13 13
13 14 14 11 10 7 8 15 11 10 11 6 5 7 10 9 9 8 7 7 9 10 10 8 8 7 7 7 7 6 5 5 5 7 4 3 3 2 3 3 1 1 6 10 6 4 4 5 5 7 7 8 9 9 9 10 10 10 12 11 10 11 11 11 12 13 13 13 13 14 15 13 14 13 14 14 14 14 14 15 17 16 14 13 14
15 15 14 14 12 12 12 11 12 7 10 10 10 8 7 12 9 10 9 13 14 12 11 8 8 7 7 6 6 7 6 5 9 3 2 3 5 7 8 8 7 6 8 10 7 3 4 4 6 7 8 8 9 10 11 11 11 12 11 13 13 11 12 12 12 13 13 13 13 13 13 13 13 13 12 14 15 15 16 17 16 16 15 13 13
15 14 14 14 16 16 13 12 11 6 8 9 10 11 11 10 13 14 14 16 15 16 14 15 17 15 9 6 7 13 10 7 2 1 1 3 4 6 7 7 8 8 9 5 3 3 5 6 7 6 7 8 8 10 11 11 12 12 12 12 11 13 13 13 13 14 14 14 13 12 12 12 14 14 13 14 16 16 15 15 15 16 15 14 13
17 17 16 14 15 15 13 12 10 10 9 9 10 12 14 14 10 14 17 16 16 15 15 15 16 15 15 12 7 2 6 6 3 2 3 3 4 6 7 7 8 9 10 7 1 4 4 5 7 7 8 8 9 10 10 11 11 12 12 13 13 13 13 14 15 15 15 14 14 13 13 13 13 13 13 14 15 15 15 16 15 15 16 14 14
18 16 15 15 14 10 8 10 11 10 11 11 8 12 12 15 14 12 11 15 16 14 14 13 14 13 14 14 13 9 8 6 5 4 3 3 5 6 6 6 8 9 8 5 3 5 5 5 6 7 7 8 10 10 10 11 11 12 12 13 14 14 14 15 17 15 14 14 14 14 13 13 13 13 13 14 14 14 15 15 15 15 15 15 14
20 18 18 19 14 12 11 10 11 10 9 11 12 12 13 15 18 18 17 13 10 11 12 13 13 13 13 12 9 10 8 7 5 5 4 4 5 6 7 4 5 9 8 3 4 4 4 5 6 7 8 8 9 10 10 11 11 12 12 13 13 14 15 15 14 15 14 14 13 14 14 13 13 13 13 12 11 12 14 15 15 15 14 14 14
14 15 22 17 10 13 11 12 9 11 14 15 14 14 13 13 14 14 14 16 16 13 8 7 8 10 7 7 8 9 8 6 7 6 5 5 6 6 7 5 4 5 6 5 5 4 5 6 7 7 7 9 9 10 11 12 12 12 12 13 14 14 15 15 15 15 15 14 15 14 14 14 14 12 12 13 12 13 13 14 15 14 15 15 14
16 14 13 16 11 10 11 9 12 17 17 13 13 13 13 13 12 11 10 10 11 10 7 5 3 3 12 8 8 8 7 7 7 7 7 8 8 5 4 3 2 3 4 5 5 6 5 5 6 7 7 8 9 9 10 11 12 12 12 13 14 14 14 15 15 15 16 15 15 16 16 14 13 13 13 12 13 14 13 14 15 16 15 15 14
17 12 10 11 9 10 10 12 16 17 14 13 12 12 11 11 9 10 9 10 9 7 8 6 4 2 5 4 2 4 6 7 8 10 9 9 9 6 3 1 1 1 3 4 4 5 6 6 5 6 7 8 9 9 10 11 12 12 14 14 13 14 14 14 17 17 16 16 16 15 15 14 14 13 12 14 13 11 13 14 15 17 17 18 18
20 17 13 14 12 15 13 15 14 14 13 12 12 12 12 11 11 11 10 10 10 9 8 7 6 7 7 2 2 1 2 7 8 9 7 6 4 2 2 1 1 1 1 4 3 5 6 7 6 7 8 8 9 10 10 11 12 12 13 14 14 13 22 20 20 17 16 16 16 15 14 14 14 13 12 12 13 14 14 15 14 15 16 17 15
14 13 17 21 18 17 16 14 12 13 12 14 14 13 12 11 11 10 10 9 9 8 7 7 7 6 5 4 1 1 5 4 3 1 1 1 1 1 1 1 1 1 2 3 4 4 5 6 8 7 8 8 9 10 10 11 12 12 13 13 14 14 16 15 17 16 16 16 17 15 14 14 14 13 13 13 12 13 14 15 14 15 16 15 14
15 12 15 23 15 15 12 12 13 13 12 16 15 11 11 11 11 11 10 10 9 8 8 8 7 6 5 3 3 3 5 5 2 1 0 0 0 1 0 1 1 2 3 5 5 5 5 6 7 7 8 8 9 10 10 11 12 12 13 13 14 15 16 15 16 16 16 17 17 16 16 15 15 14 13 12 12 12 13 15 16 16 15 15 15
13 12 14 17 15 13 11 12 11 12 11 12 11 10 10 10 10 9 9 9 9 8 7 7 7 6 6 6 7 8 6 6 3 1 1 1 1 1 1 1 1 2 3 4 5 5 5 6 7 7 8 8 9 9 10 11 12 12 13 14 14 14 16 16 17 15 17 18 17 17 17 16 15 14 15 14 16 15 14 15 16 15 15 15 15
13 14 14 13 15 13 12 12 12 13 13 12 12 11 10 10 10 9 9 9 8 8 8 7 5 5 4 5 7 10 7 4 2 3 1 1 1 2 1 1 2 2 3 4 5 6 6 6 7 7 8 9 9 10 10 11 12 12 13 14 15 15 15 13 15 15 17 17 18 18 18 17 17 15 16 17 14 13 12 13 14 14 14 14 14
15 14 14 13 13 13 13 13 13 14 11 11 10 8 9 10 10 9 9 8 8 8 8 8 6 4 1 4 6 8 5 3 2 1 1 1 2 2 2 3 3 3 4 5 5 5 5 6 7 7 8 9 9 9 10 11 11 12 13 13 15 16 16 14 15 15 16 18 18 20 20 18 16 14 14 14 14 14 13 14 14 14 14 14 14
15 14 13 13 12 11 10 14 13 11 10 11 11 10 10 9 9 8 9 8 8 7 7 7 7 6 2 4 5 6 2 1 1 2 1 2 1 2 4 3 4 3 4 5 6 5 5 5 7 8 8 8 8 9 9 10 10 11 13 13 14 14 13 15 16 16 17 18 19 20 19 18 17 16 15 14 14 14 15 15 15 14 14 13 14
14 15 15 13 13 16 13 11 10 12 12 11 10 10 8 9 9 8 8 8 7 6 6 6 6 5 5 3 3 3 1 2 3 2 1 1 2 4 4 4 4 5 5 6 5 5 5 6 6 7 9 9 9 10 10 10 11 11 11 13 13 14 15 16 16 15 16 19 19 19 18 18 18 17 16 16 15 14 15 15 14 16 16 14 14
14 14 15 15 15 14 13 15 11 12 12 13 15 13 8 8 8 8 7 7 7 7 7 6 5 5 5 5 3 4 3 3 2 1 3 1 2 4 4 4 5 5 6 6 6 5 5 5 6 7 9 9 10 10 11 11 11 11 12 12 13 14 15 15 15 15 16 18 18 18 18 18 18 17 19 17 15 13 14 16 16 14 14 16 16
15 14 15 15 16 13 13 13 11 13 12 10 10 10 9 8 8 7 7 7 8 7 7 6 6 6 5 5 5 5 4 2 2 1 2 3 3 5 4 5 5 5 5 6 5 6 6 6 6 7 8 9 9 11 11 11 11 11 11 12 13 15 15 17 16 14 16 18 17 16 17 17 18 17 19 18 15 15 16 16 16 18 17 15 15
13 13 13 13 15 19 15 12 12 12 10 9 9 8 8 8 8 7 7 7 8 7 7 6 5 5 6 5 4 4 3 2 1 3 2 3 4 4 4 4 5 5 5 5 5 5 5 6 6 7 8 9 9 10 11 12 12 12 12 12 13 15 24 27 16 14 16 18 17 17 17 17 17 17 17 18 17 15 16 17 17 16 16 16 15
14 14 13 14 18 19 15 14 11 11 11 10 10 9 8 8 7 7 7 7 7 7 6 7 6 5 5 4 4 3 2 3 2 2 2 3 3 4 4 4 5 5 5 5 6 5 6 6 6 7 8 8 9 10 11 12 13 13 14 13 17 31 33 31 20 15 22 18 16 17 17 17 18 18 18 17 17 16 15 16 16 17 17 16 15
15 17 16 15 13 12 10 9 11 10 9 9 10 9 8 7 8 7 7 6 6 5 4 5 5 6 6 4 5 3 2 2 1 1 2 3 3 4 4 5 4 5 5 5 6 6 6 5 6 7 8 8 9 9 10 11 12 13 13 16 28 34 32 31 24 23 21 16 17 15 16 17 18 17 16 16 16 17 17 15 17 17 16 16 15
14 15 13 12 12 11 10 10 10 10 9 9 9 9 9 8 7 6 6 6 6 6 6 6 5 5 4 3 4 2 2 2 1 1 2 3 4 4 4 4 5 4 5 5 6 5 5 5 6 7 7 8 9 10 10 11 11 14 21 29 30 33 32 30 22 23 28 23 16 16 16 18 19 19 18 17 17 17 19 18 17 17 16 14 14
Wind_Direction
186 195 183 189 180 184 181 176 176 170 164 166 163 164 161 158 159 155 141 154 149 151 156 159 158 164 168 174 178 184 184 194 183 187 206 226 233 241 251 256 259 261 265 267 264 269 270 272 272 273 279 276 277 277 273 274 274 273 273 272 270 266 264 267 268 273 278 279 283 287 294 298 295 293 292 288 287 284 278 281 285 285 285 283 282
193 189 186 186 185 182 176 171 169 167 166 167 165 163 160 158 154 148 154 152 150 152 155 154 157 165 170 178 181 185 189 181 186 185 224 236 251 243 249 253 256 263 265 270 270 268 272 272 274 277 278 278 280 276 274 274 271 271 266 268 269 271 268 273 273 276 280 284 283 288 288 296 292 293 293 289 285 285 282 283 283 281 282 283 280
186 182 185 185 185 177 168 170 168 169 168 170 168 163 159 153 152 151 151 151 148 151 154 154 161 164 169 176 180 186 186 189 190 199 219 229 241 246 251 254 261 264 266 268 271 273 272 269 273 276 275 274 271 271 274 274 274 271 271 266 269 270 270 268 274 276 277 279 282 285 286 294 287 292 290 284 286 289 288 286 283 283 276 277 277
183 181 184 184 177 170 174 169 168 172 174 173 168 163 157 154 150 148 147 146 148 149 148 155 156 167 171 177 181 187 186 190 197 204 217 227 242 254 253 256 258 261 262 266 268 267 268 273 270 270 272 272 270 268 266 265 264 263 266 264 265 267 265 265 265 270 276 280 280 280 286 289 287 286 289 291 287 286 280 283 279 273 273 271 271
181 184 179 177 177 177 175 172 174 175 176 170 168 160 158 152 152 151 145 147 149 146 152 154 159 166 175 179 189 189 194 200 211 219 226 225 241 248 251 253 255 256 259 259 263 263 264 263 268 268 270 268 269 264 263 261 259 261 262 263 261 263 261 262 261 261 269 273 277 275 279 281 285 286 288 289 287 280 279 275 277 275 272 267 272
186 180 179 177 180 180 178 176 180 178 172 169 166 162 156 155 152 150 149 147 145 151 153 158 161 169 168 181 182 191 191 196 203 222 231 240 243 246 249 252 253 255 256 258 258 260 261 262 264 265 263 266 271 271 271 271 269 262 255 253 255 255 261 256 262 261 257 265 273 278 274 278 280 276 279 280 285 286 284 278 272 267 279 286 280
186 184 181 182 178 183 182 183 178 174 172 166 160 158 157 154 152 153 151 148 150 152 154 149 155 164 173 170 183 183 197 197 213 231 238 240 240 246 251 251 253 253 255 255 256 257 258 258 262 265 263 264 267 268 266 262 262 261 262 267 262 261 256 261 253 258 261 260 260 267 272 270 270 279 278 270 274 272 284 288 282 280 276 271 276
183 184 181 183 184 184 183 176 173 171 166 160 159 157 151 151 150 144 142 148 150 151 153 153 150 146 165 163 181 176 192 212 224 230 234 232 236 241 244 250 256 259 257 257 258 260 259 263 264 262 263 262 261 263 271 273 273 271 265 263 258 258 258 256 258 255 259 262 265 265 267 268 272 265 274 270 272 273 260 277 281 286 286 278 271
179 182 183 187 187 180 170 170 168 165 162 158 156 156 152 148 144 141 141 139 135 137 136 139 149 149 161 168 184 195 206 220 221 227 225 231 229 234 244 256 259 262 264 264 263 262 264 266 263 263 262 266 271 276 275 277 276 275 270 255 246 245 254 254 255 257 258 259 267 262 267 266 262 272 271 266 261 271 273 269 274 278 282 279 277
178 182 186 188 179 171 169 166 166 164 162 161 158 152 149 146 141 138 139 136 133 135 137 140 149 159 166 185 196 211 220 220 230 234 230 212 211 231 245 250 258 263 268 271 269 267 267 263 265 271 276 280 282 282 283 284 282 280 282 277 276 270 263 261 254 253 255 261 260 265 258 263 260 256 264 263 262 274 268 269 266 276 277 279 279
182 183 187 180 171 165 165 169 164 168 164 155 152 149 147 143 140 137 136 136 139 138 142 144 155 171 183 194 205 211 217 223 234 238 241 243 235 233 252 262 263 266 266 270 274 276 275 274 277 277 278 280 281 283 284 284 285 285 282 282 280 278 278 277 276 276 275 268 267 258 258 259 256 258 250 264 262 260 262 259 259 269 275 283 285
181 184 179 168 168 168 169 164 164 164 156 156 151 147 142 142 142 141 141 140 143 140 146 161 166 176 186 198 209 216 221 233 239 245 247 247 249 253 256 261 264 267 273 274 276 277 279 280 277 276 275 277 279 281 282 284 286 285 285 285 283 281 278 277 278 277 275 279 277 273 268 266 268 252 262 257 268 266 254 260 265 266 270 270 273
177 175 172 169 171 170 165 163 162 158 158 151 147 144 143 141 141 144 150 144 141 150 161 165 173 181 190 198 210 218 225 235 245 251 253 253 257 261 264 266 270 269 271 274 278 280 282 281 281 280 283 287 285 280 280 279 278 283 283 283 282 279 278 276 274 272 274 272 273 273 269 279 279 276 275 277 279 275 275 266 264 264 262 267 267
174 174 171 172 170 166 162 161 160 157 150 146 145 145 145 148 144 140 137 144 153 155 163 168 173 182 191 199 209 221 228 238 250 254 255 258 261 267 269 266 267 275 279 280 279 281 282 285 289 290 286 283 283 286 283 279 280 277 274 270 267 267 269 268 268 268 266 268 270 270 268 258 267 271 267 268 271 270 270 266 258 262 263 260 269
173 173 172 171 165 163 161 160 156 152 149 147 146 146 147 142 143 148 149 155 157 161 164 168 178 178 189 199 209 225 231 243 250 254 256 263 268 273 274 281 287 280 278 280 283 282 285 285 287 285 287 290 290 290 291 291 289 286 279 275 269 269 262 252 251 257 257 258 260 265 268 262 260 264 261 253 253 258 258 263 263 262 265 267 263
174 172 173 170 167 165 162 160 156 155 154 154 152 147 146 150 152 151 149 147 149 151 159 163 172 180 187 188 202 232 239 247 255 257 262 266 271 277 283 281 274 282 284 284 284 284 283 289 291 293 293 294 296 298 299 299 295 291 289 287 284 278 275 274 274 276 273 268 262 260 261 261 259 257 257 252 249 250 255 259 259 257 265 265 264
180 178 175 171 169 167 166 162 162 161 159 157 148 150 151 151 150 147 148 154 157 162 164 166 169 173 181 184 202 234 239 249 256 257 259 268 278 267 263 264 276 278 283 286 286 285 288 291 294 299 300 298 300 303 302 305 302 300 295 291 285 280 277 274 272 279 281 280 279 278 277 275 272 270 270 267 264 259 255 258 251 242 255 257 261
182 178 177 174 172 170 169 165 165 165 160 157 155 154 151 143 149 154 150 151 158 161 159 151 163 171 184 189 203 222 235 250 254 255 261 267 273 268 276 270 267 274 279 284 286 288 290 297 301 301 300 301 303 304 308 309 301 294 286 282 281 278 278 280 280 279 281 281 280 279 277 276 276 276 275 276 276 275 265 260 261 258 255 255 263
182 183 180 172 169 168 168 166 165 151 150 158 151 151 154 152 148 143 146 141 143 146 144 151 160 179 189 190 211 223 231 242 253 255 263 268 278 271 264 271 274 274 280 281 286 292 297 301 302 303 304 302 306 309 308 307 299 294 293 290 291 291 293 295 292 289 282 273 272 270 268 268 267 266 266 268 269 269 264 261 262 257 260 261 262
181 168 162 164 165 166 165 163 163 165 151 123 138 139 134 134 146 145 142 131 134 139 147 153 164 171 177 187 215 228 233 237 243 254 261 273 284 282 260 271 276 278 281 281 291 299 303 303 304 305 306 308 308 308 308 309 308 304 300 295 297 298 304 293 285 287 290 290 288 285 276 269 265 262 258 256 257 257 260 261 260 258 262 263 262
160 163 159 159 163 165 165 165 163 163 162 157 125 126 137 140 133 131 128 131 133 139 150 154 150 163 182 207 213 222 217 227 244 252 268 277 284 291 279 275 278 280 284 300 306 309 310 309 309 306 306 307 309 311 313 313 313 311 307 304 299 298 300 299 301 304 302 299 291 283 277 268 260 253 245 245 247 248 252 254 253 249 249 251 253
155 155 160 161 161 163 163 161 158 153 152 144 131 135 126 118 128 123 122 132 141 136 130 133 148 178 199 210 207 211 232 227 205 255 273 281 287 296 293 282 294 304 309 303 308 311 311 310 310 308 310 313 315 316 317 316 316 318 309 305 305 307 307 305 312 314 301 297 293 289 287 276 265 253 247 247 244 246 250 250 250 248 245 244 246
156 155 156 159 161 161 160 158 156 155 149 149 134 135 134 128 124 126 131 131 132 134 143 152 165 188 196 199 206 207 196 214 246 251 271 284 291 298 299 303 311 314 309 311 315 313 311 308 303 310 317 319 319 320 320 321 321 313 312 314 314 314 315 320 313 305 300 299 298 296 297 294 278 261 249 247 246 245 249 249 250 250 247 246 244
152 155 157 158 155 156 155 153 152 148 135 140 133 130 135 128 125 132 127 126 131 138 147 163 176 178 186 200 193 163 171 154 249 262 268 284 295 300 307 312 314 318 318 316 315 311 309 305 312 318 320 321 321 323 323 323 318 317 319 320 321 321 315 307 301 302 301 299 299 298 298 301 303 293 275 263 262 257 253 252 251 249 247 247 246
154 159 159 157 154 149 145 147 150 151 144 143 135 132 126 131 128 134 129 138 141 144 160 168 171 176 182 187 172 157 165 186 217 255 272 291 299 307 313 314 319 321 320 318 312 306 310 317 321 322 323 324 325 325 324 320 318 319 321 323 326 314 308 303 303 303 300 300 299 297 295 297 296 297 304 306 296 275 259 258 255 253 250 247 247
158 158 155 153 152 147 143 145 146 143 146 138 126 140 142 144 136 140 140 144 150 156 162 161 170 175 175 168 164 164 182 187 225 247 256 276 283 311 315 319 319 320 323 321 313 316 322 325 324 323 325 326 326 324 320 320 320 321 322 323 317 311 305 304 302 303 301 302 301 298 299 298 297 299 297 292 287 280 274 267 263 256 249 247 250
154 154 157 155 154 157 154 156 153 147 146 138 130 126 136 133 133 138 147 148 151 154 164 166 172 171 167 168 162 181 186 197 221 245 249 250 241 277 313 301 312 321 329 294 299 351 336 328 321 324 324 322 322 319 318 317 316 314 312 311 310 309 308 305 306 306 303 300 300 299 299 296 296 296 293 293 289 287 282 271 261 258 253 248 249
166 166 162 162 158 161 151 150 147 147 154 149 143 142 136 142 143 156 161 162 160 167 171 175 174 169 167 161 161 169 191 194 221 232 251 225 234 264 290 276 300 345 305 291 26 350 329 312 316 308 309 311 311 306 304 308 310 311 310 310 309 310 313 313 309 299 296 297 295 298 295 298 296 295 295 293 294 294 296 290 272 259 252 250 250
162 161 162 158 162 169 153 160 158 143 146 128 122 149 157 156 150 139 152 149 159 159 167 168 164 161 155 160 163 175 173 208 226 239 245 312 321 320 289 277 294 243 316 343 13 336 298 307 308 317 318 316 315 314 313 314 314 312 310 311 314 315 315 317 316 309 304 302 301 301 299 297 296 297 297 297 296 296 294 294 288 268 255 245 248
166 169 167 168 162 159 166 165 163 147 143 140 134 114 130 138 141 146 148 160 163 167 162 159 159 154 158 170 163 175 179 203 233 262 4 331 339 343 345 349 352 347 354 357 356 314 304 315 319 322 319 320 318 319 323 321 319 321 319 320 318 316 318 318 314 308 304 304 302 302 298 297 297 302 302 300 299 297 295 294 293 287 264 244 245
171 171 170 175 175 172 167 162 163 149 143 135 134 134 139 153 151 144 145 156 161 165 164 166 165 167 165 164 178 183 197 210 187 81 37 9 354 359 4 14 8 10 8 20 352 327 331 330 323 319 311 313 313 318 320 320 321 320 320 319 317 318 320 317 315 309 307 305 303 300 296 299 302 305 301 301 300 298 299 298 294 292 278 254 244
175 180 179 173 169 171 169 162 149 146 146 143 138 141 144 136 142 154 157 158 166 168 166 169 169 171 169 163 158 199 186 176 160 113 74 29 18 9 18 23 22 24 20 18 338 324 327 325 322 318 314 315 316 318 317 317 317 318 318 320 320 321 320 319 315 312 307 304 306 305 303 303 301 302 299 300 300 298 297 297 295 294 294 275 251
178 173 173 170 171 168 154 152 155 155 147 147 142 147 145 146 142 147 156 162 160 158 158 165 167 165 162 162 164 165 160 152 128 120 81 48 31 18 25 26 28 22 28 17 19 339 335 320 304 302 315 318 318 319 315 316 317 318 318 317 318 319 316 313 312 308 304 303 309 308 306 302 302 300 299 301 298 295 296 293 293 291 291 289 274
180 173 174 175 164 164 168 158 152 157 149 144 144 144 150 152 141 140 131 134 152 153 154 159 161 159 160 156 150 148 143 136 127 111 89 61 40 28 40 13 30 30 37 31 353 339 312 303 306 313 316 315 313 314 314 315 317 315 315 313 313 313 313 313 314 311 306 307 310 307 306 303 304 304 301 298 293 295 293 289 288 289 288 286 285
180 181 175 167 150 162 159 165 154 144 148 154 155 154 150 152 151 150 155 158 156 148 150 138 147 151 141 141 142 142 139 126 121 109 87 65 48 54 61 38 15 349 4 11 1 333 325 322 316 314 316 314 314 315 314 315 314 316 315 314 314 314 315 316 313 310 306 311 312 310 308 308 307 302 301 301 299 295 290 289 287 284 285 287 286
178 174 172 172 165 156 160 159 159 152 155 153 152 150 148 150 151 150 148 147 146 141 139 143 139 161 151 140 138 137 130 118 117 100 84 74 57 56 62 32 20 353 355 337 334 323 312 298 303 305 309 305 307 310 311 313 313 313 312 312 314 313 313 313 313 310 311 313 311 311 311 310 308 305 302 294 290 290 289 287 285 284 281 280 280
180 165 159 168 160 158 146 142 145 148 146 144 145 142 143 142 137 139 143 146 142 138 141 136 124 144 98 14 48 94 104 113 105 88 71 72 72 72 114 131 64 357 328 319 309 307 301 297 294 299 304 305 307 308 311 312 312 312 312 313 310 311 309 310 314 310 312 317 316 314 312 310 311 308 304 302 297 291 288 287 285 282 281 281 284
172 172 172 165 147 157 149 153 157 150 143 141 141 142 140 140 140 141 142 140 144 144 145 158 158 159 149 202 57 83 85 79 75 62 47 49 57 64 63 54 73 334 278 283 280 285 295 302 310 310 308 307 308 311 313 312 313 314 314 312 313 308 313 315 313 308 313 318 317 317 315 312 312 310 307 301 298 296 292 289 287 286 283 281 282
173 162 162 161 163 153 147 152 149 139 136 121 118 133 137 137 137 137 139 138 141 142 146 146 147 152 151 164 217 178 98 64 65 69 26 17 39 47 37 1 307 295 283 281 292 300 304 309 312 311 307 311 309 311 311 312 313 313 313 312 313 313 315 318 315 313 320 323 321 318 316 314 314 311 307 302 298 294 289 289 285 282 280 280 276
163 160 159 157 154 155 154 147 143 142 143 130 120 126 133 137 142 142 141 142 146 149 151 150 149 149 162 159 183 156 120 131 146 191 167 358 305 307 318 297 308 302 310 307 307 307 309 307 305 307 308 309 309 309 309 310 311 310 311 313 314 314 316 316 313 314 322 324 321 319 318 317 316 313 308 302 297 295 294 292 289 282 279 276 276
159 154 154 158 151 147 138 139 140 138 138 141 141 136 138 136 134 135 137 140 140 143 145 148 143 159 174 199 184 154 140 148 155 158 193 191 232 249 257 257 261 293 292 301 302 304 302 300 304 304 307 305 307 308 309 310 310 311 312 313 313 312 314 313 309 310 321 324 323 321 320 318 317 317 315 311 308 304 295 292 288 281 275 271 270
151 150 153 149 149 142 142 142 143 140 141 142 145 142 140 137 138 138 141 140 142 143 141 139 144 157 222 167 133 127 119 129 139 164 213 218 227 241 245 251 254 248 266 277 289 299 302 302 301 305 304 307 308 308 310 309 311 311 311 313 314 313 309 304 309 314 323 324 324 322 321 319 317 315 312 311 307 303 295 288 284 281 276 271 267
148 148 148 146 149 152 148 144 139 137 136 138 133 129 129 134 136 138 138 139 143 145 142 140 140 139 212 136 122 104 98 121 157 199 206 225 244 255 265 265 263 264 264 267 268 268 276 289 296 295 298 299 300 301 304 304 305 307 309 312 314 314 312 308 314 320 325 326 325 323 321 320 319 318 316 311 307 306 295 290 291 285 278 272 270
146 141 141 143 143 139 135 125 136 137 136 131 128 131 133 129 131 133 135 135 139 139 140 138 138 139 110 52 72 88 111 149 207 228 224 249 271 283 284 285 289 292 291 283 280 274 283 291 297 298 297 296 298 298 297 298 303 305 310 312 314 307 307 315 319 323 328 329 327 326 324 322 321 320 317 312 312 307 306 301 295 289 285 279 272
142 141 140 139 136 114 131 136 127 126 127 128 130 126 129 132 133 131 131 131 132 133 130 131 131 136 127 125 119 131 190 206 223 227 257 258 273 282 286 294 300 302 300 294 289 295 298 298 297 301 306 308 308 307 305 305 305 307 307 312 313 311 314 318 319 322 328 330 328 326 324 324 323 323 320 317 312 305 301 301 300 295 290 279 273
143 142 140 139 137 139 137 119 132 131 135 127 118 120 129 127 127 131 132 131 135 137 133 131 136 142 148 155 158 161 206 217 237 234 249 273 273 279 281 287 295 298 291 290 297 302 298 294 299 302 305 307 310 310 309 308 308 309 309 309 311 307 311 317 319 325 332 333 330 326 323 323 322 320 319 319 315 307 304 305 301 293 286 284 276
143 142 142 139 141 137 136 131 128 124 122 130 131 131 129 131 129 128 128 135 139 135 136 141 146 156 162 162 166 189 204 207 220 238 241 254 262 268 280 290 296 292 291 290 293 295 297 299 299 299 302 304 307 309 309 309 309 310 311 312 308 313 318 324 325 330 335 334 330 326 325 325 323 325 323 323 319 314 311 308 308 301 297 285 282
139 137 137 135 126 116 125 129 127 127 127 130 130 129 128 129 128 131 134 137 134 133 133 140 149 159 155 161 168 187 206 205 225 225 249 256 264 272 286 291 290 290 296 301 299 293 293 295 300 303 306 310 312 312 310 310 310 311 311 312 311 313 324 325 328 335 341 336 333 328 326 326 326 325 325 325 325 322 317 313 309 308 302 297 288
134 134 127 128 131 113 131 138 137 137 136 133 130 127 131 129 132 131 138 135 136 137 143 150 157 156 148 158 169 186 198 197 226 255 259 268 282 289 282 284 290 295 299 303 298 299 298 300 302 304 305 307 309 308 309 310 311 312 312 312 312 322 328 328 332 340 343 339 335 331 329 329 329 328 328 329 328 324 318 311 309 309 307 300 293
130 128 128 128 129 126 115 120 125 126 129 131 132 131 131 131 135 141 138 133 125 129 138 150 153 155 148 156 170 191 195 204 220 234 259 279 281 285 287 293 295 300 299 294 297 296 300 300 308 308 313 311 311 310 309 309 309 309 312 312 316 328 331 332 337 347 349 344 338 333 333 331 332 331 332 330 330 329 326 319 319 319 313 305 302
120 114 113 120 123 122 121 114 105 120 130 132 134 135 137 140 141 139 134 133 136 143 145 152 148 137 141 165 173 186 196 211 214 233 256 275 279 285 292 302 307 305 296 291 294 294 299 305 313 315 315 312 313 310 311 308 309 310 309 313 327 333 334 339 344 351 350 347 339 339 338 338 336 337 337 336 334 336 335 328 324 324 318 314 317